RH
96 95 96 98 96 94 96 97 98 95 98 100 100 99 100 100 95 55 52 46 40 34 38 49 36 36 37 38 45 41 42 56 60 54 51 49 50 54 51 56 60 58 64 52
96 96 97 97 96 99 98 96 96 97 97 99 100 100 100 100 98 99 89 71 68 58 57 68 63 58 57 56 53 56 57 63 70 71 72 73 67 63 61 62 59 60 70 54
96 97 96 96 96 96 96 96 96 96 98 98 100 100 100 100 99 99 99 97 92 86 73 61 73 73 71 69 69 72 76 77 67 59 56 59 69 68 71 70 70 68 66 64
96 96 97 98 96 93 95 98 96 96 96 98 98 98 99 99 98 99 99 99 100 100 99 98 91 98 99 92 81 75 77 77 91 81 88 92 94 91 90 91 83 78 65 73
96 96 97 96 97 97 94 97 97 96 96 96 96 96 96 96 96 97 97 97 97 97 97 97 98 99 99 98 100 100 100 98 100 86 86 94 87 85 98 99 98 99 98 93
96 96 96 96 97 95 95 96 94 96 96 96 95 96 96 96 95 96 95 96 96 96 96 95 96 96 95 94 95 96 96 96 96 95 92 95 88 78 77 84 98 98 99 99
97 94 96 97 96 95 95 92 96 94 84 89 93 93 94 95 95 94 95 96 94 96 96 96 95 91 87 88 85 94 94 95 96 95 94 94 79 86 94 95 95 96 97 89
97 97 97 95 96 97 96 92 92 93 94 86 84 88 92 90 92 94 95 94 94 93 92 87 88 87 86 84 78 89 96 97 96 96 97 78 67 78 77 82 91 92 98 96
97 96 96 99 95 95 96 96 96 96 88 81 94 95 85 85 92 96 96 94 90 84 90 93 96 87 82 79 89 94 96 96 97 96 96 95 90 94 100 98 94 97 96 93
95 96 97 93 87 76 89 95 95 94 89 73 85 88 80 76 79 88 89 91 86 96 96 96 94 88 82 77 72 72 80 96 95 94 96 96 95 96 87 82 83 67 54 44
96 90 95 96 94 92 84 88 92 93 81 74 80 94 88 83 81 83 88 83 83 89 95 99 90 90 90 85 78 72 84 83 66 83 94 91 79 40 41 69 70 41 33 45
95 93 97 94 96 94 90 92 87 84 93 91 98 92 96 95 88 75 81 85 92 98 91 96 98 92 94 84 91 81 68 49 45 50 43 37 31 28 29 26 30 59 94 89
93 96 89 96 96 96 96 92 93 96 93 83 69 62 74 74 75 86 76 62 81 84 72 97 99 98 92 98 89 74 54 46 64 50 20 24 26 16 17 23 40 49 56 69
82 96 93 82 92 96 97 97 97 96 90 83 64 60 70 72 70 62 69 82 88 72 74 94 97 100 95 92 76 62 45 41 43 43 24 24 13 17 34 44 60 60 43 57
77 89 90 86 90 86 95 97 96 95 96 79 63 60 69 70 74 78 81 82 74 80 98 97 96 98 97 95 89 50 26 27 46 35 20 32 20 30 51 52 83 51 56 58
90 86 90 93 100 98 96 92 90 89 96 93 77 60 59 85 63 63 68 66 86 98 100 97 96 96 98 81 54 21 20 26 28 32 34 34 36 51 54 54 71 76 73 80
92 92 98 96 95 94 96 91 84 79 82 82 84 59 40 46 60 65 70 64 97 99 97 95 97 80 82 74 43 16 23 26 37 43 45 46 56 65 68 68 73 78 79 81
92 94 97 96 95 94 92 85 90 85 79 91 98 87 72 62 61 88 95 82 80 77 78 65 63 68 73 60 29 29 32 36 43 54 66 63 58 62 66 60 62 69 67 60
76 84 87 77 70 66 67 71 73 79 90 100 89 82 81 81 81 89 94 97 93 81 72 57 57 61 58 38 36 35 42 48 53 70 88 84 77 68 72 73 79 76 74 69
86 82 84 78 80 84 79 80 88 100 100 100 86 81 86 79 68 64 74 72 68 70 58 59 62 59 39 37 39 42 49 50 57 68 76 82 80 79 83 87 80 77 80 77
88 84 86 79 66 64 86 83 81 95 99 84 67 67 74 74 79 79 87 93 85 87 79 74 84 81 40 42 47 56 59 60 61 65 69 75 77 84 88 84 80 84 81 80
98 98 98 97 95 82 68 88 85 82 89 84 66 66 78 81 87 100 99 96 98 90 85 91 96 66 53 57 65 65 65 67 70 72 77 80 85 87 83 78 73 64 62 63
98 98 99 96 87 94 86 79 83 79 71 57 60 67 69 71 77 99 96 98 98 92 100 92 78 73 68 67 70 73 77 80 85 90 95 96 90 82 73 60 55 52 41 37
98 98 97 88 90 87 82 73 64 63 64 66 70 77 90 89 98 96 97 98 100 98 99 86 73 78 79 80 84 88 93 94 97 97 95 87 81 84 86 81 66 54 43 40
99 97 91 98 89 90 85 83 84 84 87 91 96 97 99 99 97 95 95 97 98 98 96 90 97 100 99 100 100 100 99 98 99 98 96 99 98 95 93 75 68 52 44 45
100 97 99 98 95 94 96 99 100 99 98 97 98 98 98 96 98 100 98 99 98 99 100 99 98 98 98 97 96 96 93 92 90 90 90 89 90 89 79 62 49 46 44 43
98 98 97 100 98 97 97 97 96 95 93 87 100 100 92 100 100 99 99 99 98 98 99 99 98 92 83 78 72 68 65 63 63 63 66 67 68 67 64 60 58 56 53 50
Wind_Speed
14 19 24 25 22 22 24 29 31 35 37 34 40 45 40 33 29 33 33 33 35 36 32 29 32 30 25 10 11 20 22 21 23 30 32 30 29 34 34 25 12 16 13 44
14 15 13 14 23 25 23 25 26 26 30 38 43 42 43 40 32 31 32 36 38 39 36 28 31 36 34 30 28 20 22 24 18 12 23 29 35 39 39 39 37 42 12 39
17 12 13 12 10 16 20 22 21 26 28 36 38 43 41 31 41 39 36 38 36 39 42 43 43 34 26 29 33 34 30 34 34 31 17 11 17 24 29 36 34 33 48 48
20 17 12 12 12 11 12 18 18 18 19 31 37 30 28 34 25 31 35 45 46 43 41 42 47 44 39 38 39 39 39 48 43 52 46 45 46 46 44 41 45 36 62 42
25 21 18 14 12 13 12 14 16 15 14 12 16 19 14 13 12 12 14 16 12 16 16 16 14 24 23 29 31 45 40 41 35 53 51 48 52 54 47 46 47 49 47 60
25 24 21 17 16 13 10 13 10 8 13 9 5 3 6 6 8 5 5 5 5 5 8 11 13 15 14 13 14 15 15 10 8 8 15 19 26 25 27 29 23 29 31 32
22 24 24 23 19 18 15 10 10 9 6 6 5 3 1 1 1 2 2 7 2 2 5 9 11 14 17 20 18 21 23 22 18 12 13 5 4 8 8 10 14 16 18 25
27 26 25 25 24 24 20 17 15 14 12 13 11 9 8 10 8 2 4 5 6 9 11 12 7 8 7 3 6 13 15 16 12 7 11 17 25 14 16 15 15 15 18 22
15 23 23 21 25 28 26 21 20 19 16 15 11 11 10 8 9 9 10 6 7 11 9 6 5 2 7 5 3 4 5 7 20 8 5 4 7 10 5 17 18 11 23 26
20 20 24 25 25 26 27 27 22 20 22 20 16 13 12 11 9 9 8 9 9 6 8 9 12 11 11 7 7 8 11 12 21 26 17 7 15 18 25 12 14 31 38 39
17 27 27 23 28 25 25 26 24 21 22 22 22 17 17 15 12 14 12 12 14 10 12 11 11 9 10 11 14 10 9 6 12 7 4 6 12 29 29 24 31 39 35 33
18 16 13 18 27 25 23 23 23 23 24 22 17 18 19 18 18 19 20 18 18 8 8 10 7 11 12 15 11 12 13 14 10 9 10 19 27 29 36 41 38 33 29 30
19 19 18 12 12 18 24 24 24 24 25 27 27 24 22 23 21 22 22 24 20 19 21 21 23 23 22 16 17 20 20 19 21 21 27 31 34 37 37 37 33 31 34 34
18 19 18 18 12 11 14 19 20 20 21 21 22 18 17 17 20 23 24 21 23 23 25 23 28 31 23 21 20 23 25 28 30 32 36 34 36 35 34 32 34 33 33 33
12 16 17 17 15 11 13 14 14 14 14 11 14 13 12 9 15 19 22 25 28 28 23 30 29 27 22 21 21 23 26 34 31 36 33 32 37 40 38 34 34 38 32 32
8 11 14 16 15 14 15 16 16 15 16 19 22 21 21 21 16 19 18 20 23 24 30 26 24 23 20 16 26 26 34 35 35 35 32 33 36 34 32 31 30 30 29 28
4 9 9 10 12 14 14 13 12 10 12 18 17 20 21 20 18 20 19 18 22 28 24 24 25 25 22 28 34 30 34 32 36 36 34 31 27 27 25 27 28 29 30 31
3 6 9 9 9 10 11 13 13 12 12 13 9 13 17 18 17 20 25 22 22 23 25 27 26 26 28 36 38 37 36 36 35 32 28 29 29 30 29 29 30 29 29 30
6 7 8 6 8 9 10 12 12 12 13 8 11 16 12 11 11 12 17 19 21 23 26 26 28 30 32 38 37 36 37 35 33 31 31 31 32 31 29 27 27 29 30 30
9 9 9 8 8 7 8 10 11 11 13 19 17 13 14 12 10 11 14 15 14 15 22 23 29 36 33 33 33 32 29 26 26 26 27 28 29 28 26 26 27 29 29 27
12 11 9 6 5 6 9 8 8 10 10 15 21 21 21 19 18 17 13 10 11 16 18 24 22 24 29 29 30 30 29 28 28 27 26 26 26 24 24 25 25 26 27 27
11 13 11 8 7 6 7 7 8 8 9 11 13 15 16 20 20 21 15 17 10 9 15 17 17 26 30 32 32 31 29 28 27 26 26 27 26 25 25 24 22 22 23 23
5 10 10 6 8 11 7 8 7 7 9 9 7 7 9 10 11 10 10 10 12 16 11 14 23 26 30 32 31 29 28 27 26 26 26 25 24 23 22 21 21 20 19 20
14 12 9 7 8 7 12 15 11 14 15 14 13 12 9 13 13 13 8 11 10 8 10 19 26 28 29 29 28 27 26 27 26 26 24 23 23 23 23 23 22 21 20 20
12 8 7 13 15 15 11 10 11 14 16 18 19 21 20 19 14 11 11 7 9 9 10 15 16 17 18 19 21 22 23 24 25 26 27 26 26 27 25 25 26 28 29 27
17 15 11 11 12 13 14 16 18 18 18 17 17 12 7 10 8 9 8 6 6 8 11 12 13 15 18 20 22 24 25 26 28 29 30 30 31 32 32 31 32 34 35 34
17 21 24 23 20 14 15 16 17 18 19 20 18 10 9 7 9 9 7 8 12 13 16 19 23 27 29 30 30 31 32 32 33 34 35 36 37 38 39 40 38 40 40 41
Wind_Direction
233 233 237 235 240 245 240 233 232 231 230 222 229 233 235 236 243 239 228 235 236 242 246 249 252 253 249 241 248 251 252 253 253 262 257 253 249 253 251 233 241 237 261 269
235 230 232 232 230 222 228 235 235 228 222 222 228 235 240 240 239 236 242 244 245 242 246 248 253 252 253 251 253 252 250 250 261 268 253 245 240 243 245 247 250 250 245 264
241 230 213 213 216 219 220 231 227 228 208 223 228 232 234 237 245 242 238 237 247 242 250 252 255 253 250 249 249 249 249 248 245 249 263 277 253 259 252 251 245 257 252 269
231 231 227 211 213 217 211 213 222 217 221 218 224 227 225 221 222 224 231 235 232 242 243 243 247 249 244 247 249 250 249 254 253 255 258 266 271 267 265 257 259 252 272 268
232 227 235 228 220 209 211 223 221 213 220 209 225 227 225 224 228 217 215 220 216 214 220 223 223 233 238 239 241 238 240 246 257 258 262 266 269 269 266 261 261 262 262 273
238 231 218 225 214 219 210 216 216 218 220 229 226 189 196 173 216 261 252 232 235 241 251 256 257 257 259 252 254 262 275 271 290 272 295 301 288 284 273 273 265 260 266 270
235 236 228 220 224 239 236 235 222 234 232 270 281 269 267 201 86 144 116 180 299 236 234 257 263 266 271 273 275 268 267 274 278 272 290 243 256 258 269 265 257 257 264 278
224 221 225 223 225 238 242 241 242 249 261 242 251 273 289 313 324 238 248 279 295 308 328 329 319 309 301 268 251 244 251 252 247 240 226 269 274 277 279 274 259 263 266 261
223 221 216 220 228 240 243 237 237 246 255 252 251 243 254 264 268 258 285 289 324 333 333 325 214 225 281 264 258 211 228 252 233 233 262 250 255 213 274 302 284 270 319 326
232 228 224 221 221 231 239 246 249 244 252 256 252 246 248 255 256 257 276 300 298 281 269 259 251 263 250 234 217 210 234 246 244 254 239 247 251 285 321 337 300 314 314 316
241 248 253 239 217 221 231 234 238 238 242 251 254 254 251 256 267 270 275 281 279 265 246 241 244 242 227 237 233 253 233 247 272 300 306 283 319 313 324 317 308 310 309 307
238 242 248 244 223 215 223 227 227 232 239 245 253 251 247 253 259 272 266 268 265 242 242 239 237 244 246 244 239 233 260 267 257 245 263 284 292 303 307 309 311 313 303 305
226 233 237 228 231 226 223 231 226 225 233 247 252 257 256 264 255 260 261 267 262 260 275 270 272 263 259 242 254 264 271 267 254 276 288 298 305 303 305 307 298 298 302 300
225 222 225 229 236 221 231 233 229 220 229 244 258 259 258 255 254 253 251 250 252 264 268 266 268 256 252 251 259 271 276 279 283 291 297 304 298 301 300 296 280 294 298 297
218 217 216 218 228 237 221 231 232 224 221 241 250 256 265 249 249 244 249 253 261 262 260 248 248 252 264 267 276 273 274 285 291 297 300 303 302 301 297 292 287 298 293 294
202 207 213 215 217 219 221 228 237 243 241 253 261 264 256 258 271 262 267 261 256 248 240 231 241 255 262 278 274 275 279 294 299 299 300 297 295 295 296 295 293 291 290 287
162 198 202 206 215 219 226 229 239 239 237 242 260 270 266 268 269 264 244 249 241 249 254 247 254 265 277 276 276 285 293 296 299 297 289 289 288 291 294 296 294 291 292 292
160 162 181 184 197 211 224 233 239 248 252 245 236 245 256 272 271 253 236 239 245 252 256 265 272 275 273 273 281 294 294 297 299 298 293 290 288 292 295 295 296 297 297 294
215 201 213 227 229 233 241 247 250 241 240 224 246 244 259 262 247 246 250 256 257 260 262 269 270 268 264 283 291 290 291 292 291 292 288 290 291 291 294 295 296 300 299 295
204 221 228 240 242 238 239 240 233 231 230 231 238 250 244 254 254 254 251 255 249 249 264 268 262 267 280 279 282 286 287 285 286 285 285 287 291 291 291 293 297 299 297 296
227 226 233 241 243 235 241 231 219 221 231 248 250 251 251 256 255 257 256 243 257 260 259 257 259 261 281 284 280 282 287 289 290 290 289 289 290 290 290 293 296 295 294 297
237 231 234 246 250 237 228 218 215 221 223 240 242 252 252 254 257 255 260 251 243 242 246 231 244 263 278 277 276 278 282 285 287 287 286 288 289 291 292 292 290 292 297 300
235 230 241 248 229 225 224 218 208 207 227 249 257 257 249 249 251 246 236 229 235 245 228 234 255 259 264 269 274 277 280 282 283 285 286 286 286 286 284 282 286 290 294 297
231 231 228 229 226 225 226 235 244 249 260 271 273 270 261 260 247 238 238 236 232 231 228 245 256 256 258 265 271 277 281 284 286 285 284 282 281 280 281 282 282 281 281 286
224 216 229 236 239 245 251 249 252 260 262 264 268 270 269 261 244 244 238 238 230 234 244 255 263 271 277 282 285 288 289 289 291 291 289 285 283 280 278 279 281 282 282 281
232 235 235 248 253 259 260 263 264 266 266 270 272 266 250 231 223 229 232 238 236 258 273 290 300 303 302 301 300 298 296 295 294 292 290 288 286 283 280 278 279 280 280 281
236 241 248 255 263 266 261 263 266 269 269 266 261 247 237 243 236 234 247 255 274 291 300 304 304 303 300 297 296 294 293 291 289 289 288 287 285 284 283 282 280 279 278 279